Meath Environmental Platform

Observations for Trim Patrick St

Time AQI Temp °C Hum % Pres Pa CO μg/m³ H₂S μg/m³ NO μg/m³ NO₂ μg/m³ O₃ μg/m³ SO₂ μg/m³ PM1 μg/m³ PM2.5 μg/m³ PM10 μg/m³
Sunday 2 August 2026
03:43 2 13.2 77 38,460 0.29 3.6 2.14 31.51 18.63 0 5.43 11.1 12.21
03:41 2 13.2 76 38,460 0.29 4.11 2.15 33.11 16.95 0 7.14 13.23 14.55
03:37 2 13.2 76 38,460 0.28 3.67 1.87 28 21.99 0 6.29 12.53 13.79
03:36 2 13.2 76 38,460 0.26 3.67 1.87 26.85 23.35 0 7.14 12.53 13.79
03:35 2 13.2 76 38,460 0.27 3.65 1.87 27.67 22.31 0 6.29 11.84 13.03
03:34 2 13.2 76 38,460 0.27 3.7 1.91 27.67 22.46 0 6.29 11.13 12.25
03:33 2 13.2 76 38,460 0.27 3.52 2.18 27.67 22.34 0 7.14 12.55 13.8
03:32 2 13.2 76 38,460 0.27 3.47 2.31 29.55 20.3 0 7.14 12.55 13.8
03:31 2 13.2 76 38,460 0.27 3.91 2.44 24.26 26.7 0 7.14 11.85 13.03
03:30 2 13.2 76 38,460 0.26 4.79 2.68 28.87 20.86 0 7.14 11.87 13.05
03:29 2 13.2 76 38,460 0.26 4.01 2.89 24.49 26.4 0 5.43 9.74 10.71
03:28 2 13.2 76 38,460 0.27 5.02 2.32 27.01 23.15 0 7.14 11.87 13.06
03:27 2 13.2 75 38,460 0.26 4.22 2.35 33.29 16.49 0 7.14 11.93 13.12
03:26 2 13.3 76 38,460 0.25 3.44 2.2 24.66 26.43 0 7.14 12.58 13.84
03:25 2 13.2 76 38,460 0.25 3.44 2.3 23.24 27.94 0 6.29 11.17 12.29
03:24 2 13.3 76 38,460 0.25 3.52 2.03 23.81 27.56 0 6.29 11.17 12.28
03:23 2 13.2 76 38,460 0.25 3.52 2.26 24.43 26.38 0 7.14 11.88 13.07
03:22 2 13.3 76 38,460 0.26 2.95 2.26 24.07 27.27 0 5.43 11.88 13.07
03:21 2 13.3 76 38,460 0.24 3.39 2.05 23.78 27.61 0 4.57 11.88 13.07
03:20 2 13.3 76 38,460 0.25 3.26 1.98 24.04 27.31 0 7.14 13.31 14.64